Coffeyville, KS

6:57 AM CST on November 18, 2017 (GMT -0600)
Coffeyville Municipal

Weather History for KCFV - November, 2012

Change the Weather History Date:

Friday, November 30, 2012

  Actual Average Record
Temperature  
Mean Temperature 50 °F -  
Max Temperature 64 °F 51 °F 66 °F (1998)
Min Temperature 37 °F 31 °F 17 °F (2006)
Degree Days  
Heating Degree Days 14    
Moisture  
Dew Point 45 °F    
Average Humidity 79    
Maximum Humidity 100    
Minimum Humidity 54    
Precipitation  
Precipitation 0.00 in - - ()
Sea Level Pressure  
Sea Level Pressure 30.05 in    
Wind  
Wind Speed 5 mph (South)    
Max Wind Speed 13 mph    
Max Gust Speed 18 mph    
Visibility 6 miles    
Events Fog , Snow    
Averages and records for this station are not official NWS values.
T = Trace of Precipitation, MM = Missing Value Source: NWS Daily Summary

Daily Weather History Graph

Daily Weather History Graph

Search for Another Location

Airport or City:

Trip Planner

Search our weather history database for the weather conditions in past years. The results will help you decide how hot, cold, wet, or windy it might be!

Date:

Astronomy

Nov. 30, 2012 Rise Set
Actual Time 7:16 AM CST 5:05 PM CST
Civil Twilight 6:48 AM CST 5:34 PM CST
Nautical Twilight 6:15 AM CST 6:06 PM CST
Astronomical Twilight 5:44 AM CST 6:37 PM CST
Moon 7:00 PM CST (11/30) 8:49 AM CST (11/30)
Length of Visible Light 10h 46m
Length of Day
9h 48m
Waning Gibbous, 96% of the Moon is Illuminated
Nov 30
Waning Gibbous
Dec 6
Last Quarter
Dec 13
New
Dec 19
First Quarter
Dec 28
Full

Hourly Weather History & Observations

Time (CST) Temp. Windchill Dew Point Humidity Pressure Visibility Wind Dir Wind Speed Gust Speed Precip Events Conditions
12:52 AM 51.1 °F - 35.1 °F 54% 30.09 in 10.0 mi South 8.1 mph - N/A   Clear
1:52 AM 48.0 °F - 34.0 °F 58% 30.08 in 10.0 mi SSE 4.6 mph - N/A   Clear
2:52 AM 45.0 °F 42.6 °F 33.1 °F 63% 30.08 in 10.0 mi SE 4.6 mph - N/A   Clear
3:52 AM 45.0 °F - 33.1 °F 63% 30.08 in 10.0 mi Calm Calm - N/A   Clear
4:52 AM 44.1 °F - 33.1 °F 65% 30.07 in 10.0 mi Calm Calm - N/A   Clear
5:52 AM 37.9 °F - 32.0 °F 79% 30.08 in 9.0 mi Calm Calm - 0.00 in Snow Light Snow
6:52 AM 39.9 °F 35.8 °F 33.1 °F 77% 30.09 in 10.0 mi South 5.8 mph - 0.00 in   Clear
7:52 AM 39.9 °F - 35.1 °F 83% 30.11 in 10.0 mi Calm Calm - N/A   Clear
8:52 AM 48.0 °F - 39.0 °F 71% 30.12 in 10.0 mi SSE 3.5 mph - N/A   Clear
9:52 AM 55.9 °F - 44.1 °F 64% 30.12 in 10.0 mi South 10.4 mph - N/A   Clear
10:52 AM 59.0 °F - 48.0 °F 67% 30.11 in 10.0 mi South 12.7 mph - N/A   Clear
11:52 AM 62.1 °F - 48.9 °F 62% 30.08 in 10.0 mi South 8.1 mph - N/A   Clear
12:52 PM 64.0 °F - 50.0 °F 60% 30.05 in 10.0 mi South 10.4 mph - N/A   Clear
1:52 PM 64.0 °F - 50.0 °F 60% 30.04 in 10.0 mi South 9.2 mph - N/A   Clear
2:52 PM 64.0 °F - 51.1 °F 63% 30.03 in 10.0 mi SSW 12.7 mph 18.4 mph N/A   Clear
4:14 PM 60.8 °F - 51.8 °F 72% 30.04 in 8.0 mi South 10.4 mph - N/A   Mostly Cloudy
4:52 PM 59.0 °F - 52.0 °F 78% 30.03 in 7.0 mi South 9.2 mph - N/A   Scattered Clouds
5:52 PM 55.9 °F - 51.1 °F 84% 30.03 in 7.0 mi Calm Calm - N/A   Clear
6:52 PM 52.0 °F - 50.0 °F 93% 30.02 in 5.0 mi ESE 5.8 mph - N/A   Clear
7:45 PM 48.2 °F - 46.4 °F 93% 30.02 in 1.8 mi Calm Calm - N/A   Clear
7:52 PM 48.0 °F - 45.0 °F 89% 30.03 in 2.5 mi Calm Calm - N/A   Clear
7:58 PM 48.2 °F - 46.4 °F 93% 30.02 in 3.0 mi Calm Calm - N/A   Partly Cloudy
8:03 PM 48.2 °F - 46.4 °F 93% 30.03 in 1.8 mi Calm Calm - N/A   Partly Cloudy
8:13 PM 48.2 °F - 46.4 °F 93% 30.03 in 3.0 mi Calm Calm - N/A   Clear
8:32 PM 48.2 °F - 46.4 °F 93% 30.03 in 1.2 mi Calm Calm - N/A   Partly Cloudy
8:38 PM 46.4 °F - 44.6 °F 93% 30.03 in 0.5 mi Calm Calm - N/A Fog Fog
8:52 PM 48.0 °F - 46.9 °F 96% 30.04 in 0.8 mi SSE 3.5 mph - N/A   Mostly Cloudy
9:00 PM 48.2 °F - 48.2 °F 100% 30.03 in 1.5 mi SSE 4.6 mph - N/A   Overcast
9:08 PM 48.2 °F - 48.2 °F 100% 30.03 in 2.5 mi South 4.6 mph - N/A   Overcast
9:15 PM 50.0 °F - 48.2 °F 94% 30.03 in 3.0 mi SSE 3.5 mph - N/A   Overcast
9:52 PM 52.0 °F - 50.0 °F 93% 30.03 in 4.0 mi SSE 5.8 mph - N/A   Overcast
10:52 PM 57.0 °F - 53.1 °F 87% 30.01 in 6.0 mi South 8.1 mph - N/A   Mostly Cloudy
11:52 PM 57.0 °F - 54.0 °F 89% 30.00 in 7.0 mi South 9.2 mph - N/A   Overcast